Location: Plainartige
(45.6866°N, 1.7993°E)
Time: 02:14:21
(UTC+00:00)

CAS-4B - Visible Passes

Search period start: 02 July 2022 00:00
Search period end: 12 July 2022 00:00
Orbit: 523 x 536 km, 43.0° (Epoch: 01 July)

Date Brightness Start Highest point End Pass type
(mag) Time Alt. Az. Time Alt. Az. Time Alt. Az.
02 Jul ? 00:58:20 13° ESE 00:58:20 13° ESE 00:59:12 10° ESE visible
02 Jul ? 02:33:31 20° SW 02:35:59 44° SSE 02:39:51 10° E visible
03 Jul ? 00:46:07 14° ESE 00:46:07 14° ESE 00:46:58 10° ESE visible
03 Jul ? 02:21:18 23° SW 02:23:29 48° SSE 02:27:24 10° E visible
04 Jul ? 00:33:54 14° ESE 00:33:54 14° ESE 00:34:40 10° E visible
04 Jul ? 02:09:05 27° SW 02:10:59 52° S 02:14:56 10° E visible
05 Jul ? 00:21:42 13° ESE 00:21:42 13° ESE 00:22:18 10° E visible
05 Jul ? 01:56:53 31° SW 01:58:29 55° S 02:02:28 10° E visible
06 Jul ? 00:09:30 12° E 00:09:30 12° E 00:09:54 10° E visible
06 Jul ? 01:44:42 37° SW 01:46:01 57° S 01:49:59 10° E visible
06 Jul ? 03:21:53 10° W 03:25:47 48° SSW 03:29:41 10° ESE visible
06 Jul ? 23:57:23 11° E 23:57:23 11° E 23:57:29 10° E visible
07 Jul ? 01:32:35 45° SW 01:33:31 59° S 01:37:29 10° E visible
07 Jul ? 03:09:26 10° W 03:13:17 44° SSW 03:17:08 10° ESE visible
08 Jul ? 01:20:35 55° SSW 01:21:01 60° S 01:24:59 10° E visible
08 Jul ? 02:56:57 10° W 03:00:45 40° SSW 03:04:34 10° SE visible
09 Jul ? 01:08:49 57° SSE 01:08:49 57° SSE 01:12:29 10° ESE visible
09 Jul ? 02:44:30 10° W 02:48:13 36° SSW 02:51:56 10° SE visible
10 Jul ? 00:57:33 33° ESE 00:57:33 33° ESE 00:59:58 10° ESE visible
10 Jul ? 02:32:49 14° W 02:35:40 32° SSW 02:39:17 10° SE visible
10 Jul ? 21:21:11 10° SSW 21:22:52 18° S 21:22:52 18° S visible
11 Jul ? 00:47:11 11° ESE 00:47:11 11° ESE 00:47:26 10° ESE visible
11 Jul ? 02:22:33 27° SW 02:23:07 28° SSW 02:26:35 10° SE visible
11 Jul ? 21:08:22 10° SSW 21:11:37 24° SSE 21:13:19 18° ESE visible
11 Jul ? 22:47:15 10° WSW 22:48:38 20° WSW 22:48:38 20° WSW visible
